Weather History for Du Bois, PA

Change the Weather History Date:

Saturday, November 23, 2013

  Actual Average Record
Temperature  
Mean Temperature 26 °F 36 °F  
Max Temperature 35 °F 44 °F 70 °F (1979)
Min Temperature 17 °F 29 °F 9 °F (2000)
Degree Days  
Heating Degree Days 39 29  
Month to date heating degree days 571 563  
Since 1 July heating degree days 1131 1306  
Cooling Degree Days 0 0  
Month to date cooling degree days 0 0  
Year to date cooling degree days 543 362  
Moisture  
Dew Point 18 °F    
Average Humidity 68    
Maximum Humidity 80    
Minimum Humidity 56    
Precipitation  
Precipitation 0.03 in 0.13 in 0.51 in (1963)
Month to date precipitation 2.48 2.82  
Sea Level Pressure  
Sea Level Pressure 30.12 in    
Wind  
Wind Speed 14 mph (WNW)    
Max Wind Speed 28 mph    
Max Gust Speed 38 mph    
Visibility 5 miles    
Events Fog , Snow    
T = Trace of Precipitation, MM = Missing Value Source: NWS Daily Summary

Daily Weather History Graph

Daily Weather History Graph

Search for Another Location

Airport:

Trip Planner

Search our weather history database for the weather conditions in past years. The results will help you decide how hot, cold, wet, or windy it might be!

Date:

Astronomy

Nov. 23, 2013 Rise Set
Actual Time 7:13 AM EST 4:50 PM EST
Civil Twilight 6:42 AM EST 5:20 PM EST
Nautical Twilight 6:09 AM EST 5:54 PM EST
Astronomical Twilight 5:36 AM EST 6:27 PM EST
Moon 10:18 PM EST (11/23) 11:27 AM EST (11/23)
Length of Visible Light 10h 37m
Length of Day
9h 37m
Waning Gibbous, 70% of the Moon is Illuminated
Nov 23
Waning Gibbous
Nov 25
Last Quarter
Dec 2
New
Dec 9
First Quarter
Dec 17
Full

Hourly Weather History & Observations

Time (EST) Temp. Windchill Dew Point Humidity Pressure Visibility Wind Dir Wind Speed Gust Speed Precip Events Conditions
12:56 AM 33.1 °F 24.9 °F 26.1 °F 75% 30.17 in 10.0 mi NW 10.4 mph - N/A   Overcast
1:56 AM 32.0 °F 22.5 °F 24.1 °F 73% 30.19 in 10.0 mi NNW 12.7 mph 18.4 mph N/A   Overcast
2:56 AM 30.9 °F 22.8 °F 24.1 °F 76% 30.19 in 10.0 mi NW 9.2 mph - N/A   Mostly Cloudy
3:09 AM 30.2 °F 20.8 °F 23.0 °F 75% 30.16 in 10.0 mi NW 11.5 mph - N/A   Scattered Clouds
3:56 AM 30.0 °F 20.5 °F 21.9 °F 72% 30.18 in 10.0 mi NW 11.5 mph - N/A   Mostly Cloudy
4:56 AM 28.9 °F 18.6 °F 21.9 °F 75% 30.18 in 10.0 mi WNW 12.7 mph - N/A   Mostly Cloudy
5:56 AM 28.0 °F 20.0 °F 21.0 °F 75% 30.18 in 10.0 mi NW 8.1 mph - N/A   Mostly Cloudy
6:36 AM 26.6 °F 22.6 °F 19.4 °F 74% 30.14 in 10.0 mi WNW 3.5 mph - N/A   Scattered Clouds
6:56 AM 28.0 °F 24.2 °F 19.9 °F 72% 30.19 in 10.0 mi West 3.5 mph - N/A   Clear
7:29 AM 26.6 °F 19.1 °F 21.2 °F 80% 30.15 in 10.0 mi WSW 6.9 mph - N/A   Mostly Cloudy
7:56 AM 28.0 °F 20.8 °F 21.9 °F 78% 30.19 in 10.0 mi WSW 6.9 mph - N/A   Overcast
8:56 AM 28.9 °F 18.6 °F 23.0 °F 78% 30.19 in 10.0 mi West 12.7 mph - N/A   Overcast
9:56 AM 30.0 °F 20.5 °F 23.0 °F 75% 30.18 in 10.0 mi West 11.5 mph - N/A   Overcast
10:56 AM 32.0 °F 21.2 °F 23.0 °F 69% 30.15 in 10.0 mi WSW 16.1 mph 25.3 mph N/A   Mostly Cloudy
11:09 AM 33.8 °F 22.8 °F 21.2 °F 60% 30.09 in 10.0 mi West 18.4 mph 28.8 mph N/A   Scattered Clouds
11:32 AM 33.8 °F 22.8 °F 21.2 °F 60% 30.08 in 10.0 mi West 18.4 mph 28.8 mph N/A   Mostly Cloudy
11:56 AM 33.1 °F 22.6 °F 21.9 °F 64% 30.11 in 10.0 mi West 16.1 mph 21.9 mph N/A   Mostly Cloudy
12:23 PM 33.8 °F 22.5 °F 19.4 °F 56% 30.04 in 10.0 mi West 19.6 mph 32.2 mph N/A   Mostly Cloudy
12:56 PM 33.1 °F 22.6 °F 19.9 °F 59% 30.08 in 10.0 mi West 16.1 mph 27.6 mph N/A   Mostly Cloudy
1:31 PM 30.2 °F 17.8 °F 23.0 °F 75% 30.03 in 1.5 mi West 19.6 mph 32.2 mph 0.00 in Snow Light Snow
1:36 PM 30.2 °F 18.1 °F 24.8 °F 80% 30.03 in 0.2 mi West 18.4 mph 32.2 mph 0.00 in Snow Heavy Snow
1:43 PM 28.4 °F 16.6 °F 24.8 °F 86% 30.03 in 0.2 mi WNW 16.1 mph 29.9 mph 0.01 in Snow Heavy Snow
1:53 PM 28.4 °F 14.7 °F 21.2 °F 74% 30.02 in 1.0 mi West 21.9 mph 32.2 mph 0.01 in Snow Light Snow
1:56 PM 28.9 °F 16.5 °F 21.9 °F 75% 30.08 in 2.0 mi West 18.4 mph 32.2 mph 0.01 in Snow Light Snow
2:03 PM 30.2 °F 18.9 °F 21.2 °F 69% 30.02 in 9.0 mi West 16.1 mph 24.2 mph 0.00 in   Overcast
2:10 PM 30.2 °F 20.2 °F 21.2 °F 69% 30.01 in 10.0 mi West 12.7 mph 21.9 mph 0.00 in   Overcast
2:56 PM 28.9 °F 16.5 °F 19.9 °F 69% 30.08 in 2.5 mi WNW 18.4 mph 28.8 mph 0.00 in Snow Light Snow
3:00 PM 28.4 °F 15.8 °F 21.2 °F 74% 30.03 in 0.8 mi West 18.4 mph 28.8 mph 0.00 in Snow Light Snow
3:12 PM 28.4 °F 17.5 °F 21.2 °F 74% 30.03 in 2.0 mi West 13.8 mph 27.6 mph 0.00 in Snow Light Snow
3:20 PM 28.4 °F 16.2 °F 21.2 °F 74% 30.03 in 7.0 mi WNW 17.3 mph 26.5 mph 0.00 in Snow Light Snow
3:27 PM 28.4 °F 16.2 °F 19.4 °F 69% 30.03 in 9.0 mi West 17.3 mph 27.6 mph 0.00 in   Overcast
3:56 PM 28.0 °F 16.1 °F 19.0 °F 69% 30.09 in 10.0 mi West 16.1 mph 29.9 mph 0.00 in   Overcast
4:07 PM 28.4 °F 17.5 °F 19.4 °F 69% 30.04 in 2.0 mi WNW 13.8 mph 24.2 mph 0.00 in Snow Light Snow
4:11 PM 26.6 °F 15.2 °F 21.2 °F 80% 30.04 in 0.8 mi NW 13.8 mph 24.2 mph 0.00 in Snow Light Snow
4:25 PM 26.6 °F 12.7 °F 21.2 °F 80% 30.05 in 0.8 mi NW 20.7 mph 29.9 mph 0.00 in Snow Light Snow
4:31 PM 26.6 °F 13.8 °F 19.4 °F 74% 30.05 in 3.0 mi WNW 17.3 mph 29.9 mph 0.00 in Snow Light Snow
4:56 PM 26.1 °F 14.0 °F 18.0 °F 71% 30.12 in 2.5 mi NW 15.0 mph 31.1 mph 0.00 in Snow Light Snow
5:05 PM 24.8 °F 11.1 °F 15.8 °F 69% 30.07 in 4.0 mi WNW 18.4 mph 38.0 mph 0.00 in Snow Light Snow
5:15 PM 24.8 °F 10.3 °F 15.8 °F 69% 30.07 in 7.0 mi NW 20.7 mph 29.9 mph 0.00 in Snow Light Snow
5:53 PM 24.8 °F 10.0 °F 12.2 °F 59% 30.08 in 10.0 mi WNW 21.9 mph 33.4 mph 0.00 in   Mostly Cloudy
5:56 PM 24.1 °F 9.4 °F 12.9 °F 62% 30.16 in 10.0 mi NW 20.7 mph 33.4 mph 0.00 in   Mostly Cloudy
6:33 PM 23.0 °F 9.2 °F 15.8 °F 74% 30.09 in 4.0 mi WNW 17.3 mph 28.8 mph 0.00 in Snow Light Snow
6:37 PM 23.0 °F 8.7 °F 15.8 °F 74% 30.10 in 2.0 mi WNW 18.4 mph 28.8 mph 0.00 in Snow Light Snow
6:44 PM 21.2 °F 7.8 °F 15.8 °F 80% 30.10 in 1.8 mi WNW 15.0 mph 24.2 mph 0.00 in Snow Light Snow
6:47 PM 21.2 °F 6.4 °F 17.6 °F 86% 30.10 in 3.0 mi WNW 18.4 mph 29.9 mph 0.00 in Snow Light Snow
6:56 PM 21.9 °F 8.2 °F 15.1 °F 75% 30.17 in 5.0 mi NW 16.1 mph 31.1 mph 0.00 in Snow Light Snow
7:12 PM 21.2 °F 6.4 °F 14.0 °F 74% 30.11 in 1.8 mi WNW 18.4 mph 28.8 mph 0.00 in Snow Light Snow
7:21 PM 21.2 °F 6.8 °F 15.8 °F 80% 30.11 in 0.5 mi WNW 17.3 mph 25.3 mph 0.00 in Snow Snow
7:29 PM 21.2 °F 7.8 °F 15.8 °F 80% 30.11 in 1.0 mi NW 15.0 mph 29.9 mph 0.00 in Snow Light Snow
7:34 PM 21.2 °F 7.8 °F 15.8 °F 80% 30.11 in 3.0 mi NW 15.0 mph 21.9 mph 0.00 in Snow Light Snow
7:56 PM 21.0 °F 7.1 °F 14.0 °F 74% 30.19 in 9.0 mi NW 16.1 mph 26.5 mph 0.00 in   Mostly Cloudy
8:11 PM 19.4 °F 7.2 °F 15.8 °F 86% 30.13 in 1.8 mi NW 11.5 mph 18.4 mph 0.00 in Snow Light Snow
8:15 PM 19.4 °F 6.6 °F 15.8 °F 86% 30.13 in 1.0 mi NNW 12.7 mph 19.6 mph 0.00 in Snow Light Snow
8:31 PM 19.4 °F 5.5 °F 12.2 °F 74% 30.13 in 1.8 mi NNW 15.0 mph 24.2 mph 0.00 in Snow Light Snow
8:40 PM 19.4 °F 4.1 °F 12.2 °F 74% 30.14 in 3.0 mi NNW 18.4 mph 27.6 mph 0.00 in Snow Light Snow
8:48 PM 19.4 °F 5.5 °F 12.2 °F 74% 30.14 in 1.8 mi NNW 15.0 mph 27.6 mph 0.00 in Snow Light Snow
8:56 PM 19.0 °F 6.8 °F 12.9 °F 77% 30.22 in 1.0 mi NNW 11.5 mph 21.9 mph 0.00 in Snow Light Snow
9:03 PM 19.4 °F 5.0 °F 12.2 °F 74% 30.15 in 0.5 mi NW 16.1 mph 25.3 mph 0.00 in Snow Snow
9:13 PM 17.6 °F 5.0 °F 14.0 °F 86% 30.15 in 0.5 mi NW 11.5 mph 20.7 mph 0.01 in Fog , Snow Snow
9:33 PM 19.4 °F 4.5 °F 12.2 °F 74% 30.15 in 1.0 mi NNW 17.3 mph 24.2 mph 0.01 in Snow Light Snow
9:54 PM 17.6 °F 4.3 °F 12.2 °F 79% 30.15 in 1.5 mi NW 12.7 mph 21.9 mph 0.01 in Snow Light Snow
9:56 PM 18.0 °F 6.1 °F 12.9 °F 81% 30.22 in 1.2 mi WNW 10.4 mph 21.9 mph 0.01 in Snow Light Snow
10:32 PM 17.6 °F 2.7 °F 12.2 °F 79% 30.15 in 3.0 mi WNW 16.1 mph 23.0 mph 0.00 in Snow Light Snow
10:56 PM 18.0 °F 2.2 °F 10.0 °F 71% 30.23 in 9.0 mi NW 18.4 mph 25.3 mph 0.00 in   Mostly Cloudy
11:43 PM 17.6 °F 3.7 °F 10.4 °F 73% 30.16 in 1.5 mi NW 13.8 mph 20.7 mph 0.00 in Snow Light Snow
11:46 PM 17.6 °F 4.3 °F 12.2 °F 79% 30.16 in 0.5 mi NW 12.7 mph 20.7 mph 0.00 in Snow Snow
11:56 PM 18.0 °F 6.1 °F 12.9 °F 81% 30.22 in 0.5 mi West 10.4 mph 19.6 mph 0.01 in Snow Snow